Overview Statistics Trail Chart Weather Telemetry Raw packets
 

This is the latest recevied weather packets stored in our database for station/object N9BLE. If no packets are shown the sender has not sent any weather packets the latest 10 day(s).

<< 31 32 33 34 35 36 37 >>
Time Temp. Humidity Pressure Rain* Wind** Luminosity Snow
1777831144 13.33° C 70% 1013.4 hPa 0 mm - 785 W/m² -
1777830843 13.33° C 72% 1013.6 hPa 0 mm - 647 W/m² -
1777830538 13.33° C 72% 1013.8 hPa 0 mm - 739 W/m² -
1777830236 12.22° C 75% 1014 hPa 0 mm - 849 W/m² -
1777829931 11.67° C 75% 1014.1 hPa 0 mm - 677 W/m² -
1777829627 11.67° C 76% 1014.2 hPa 0 mm - 331 W/m² -
1777829324 11.11° C 77% 1014.4 hPa 0 mm - 303 W/m² -
1777829022 11.11° C 77% 1014.4 hPa 0 mm - 310 W/m² -
1777828718 10.56° C 79% 1014.3 hPa 0 mm - 298 W/m² -
1777828415 10.56° C 81% 1014.2 hPa 0 mm - 244 W/m² -
1777828112 10° C 82% 1014.8 hPa 0 mm - 236 W/m² -
1777827809 10° C 83% 1014.8 hPa 0 mm - 266 W/m² -
1777827506 9.44° C 84% 1015.1 hPa 0 mm - 215 W/m² -
1777827204 9.44° C 85% 1015.3 hPa 0 mm - 218 W/m² -
1777826899 8.89° C 87% 1015.2 hPa 0 mm - 205 W/m² -
1777826597 8.33° C 87% 1015.5 hPa 0 mm - 220 W/m² -
1777826292 8.33° C 87% 1015.7 hPa 1.78 mm - 130 W/m² -
1777825991 8.33° C 87% 1015.9 hPa 1.78 mm - 65 W/m² -
1777825687 8.33° C 87% 1015.7 hPa 0 mm - 50 W/m² -
1777825385 8.33° C 87% 1015.8 hPa 0 mm - 66 W/m² -
1777825082 8.33° C 87% 1015.9 hPa 0 mm - 105 W/m² -
1777824778 8.33° C 88% 1016.4 hPa 1.78 mm - 122 W/m² -
1777824475 8.33° C 89% 1016.6 hPa 3.05 mm - 134 W/m² -
1777824171 8.89° C 90% 1016.8 hPa 1.27 mm - 95 W/m² -
1777823867 8.33° C 89% 1017 hPa 1.78 mm - 78 W/m² -

* Rain latest hour (hover to see other rain measurements)
** Current wind speed in m/s (hover to see current wind gust speed)